SCP
0 0 0 0 0 0 0 0 0 0 0 0 0 0 0 0 0 0 0 0 0 0 0 0 1 1 1 0 0 0 0 0 0 0 0 0 0 0 0 0 0 0 0
0 0 0 0 0 0 0 0 0 0 0 0 0 0 0 0 0 0 0 0 0 0 0 0 1 1 1 1 1 0 0 0 0 0 0 0 0 0 0 0 0 0 0
0 0 0 0 0 0 0 0 0 0 0 0 0 0 0 0 0 0 0 0 0 1 0 0 0 1 1 0 0 0 0 0 0 0 0 0 0 0 0 0 0 0 -0
0 0 0 0 0 0 0 0 0 0 0 1 1 1 1 1 0 1 1 1 1 1 0 0 0 0 0 -0 -0 -0 0 0 0 0 0 0 0 0 0 0 0 0 0
0 0 0 0 0 0 0 0 1 1 1 1 1 1 2 1 1 1 1 1 1 1 0 0 0 0 0 0 0 0 0 0 0 0 0 0 0 0 0 0 0 -0 -0
0 1 0 1 1 1 1 1 1 1 1 1 2 2 2 2 1 1 1 0 0 -0 0 0 0 0 0 0 0 0 0 0 0 0 0 1 0 0 0 0 0 0 0
1 1 1 1 1 1 2 2 2 1 1 1 2 1 0 1 1 1 1 1 1 -0 0 0 0 0 0 0 0 1 1 1 1 1 0 0 0 0 1 0 0 0 0
1 1 1 2 2 2 2 2 2 2 2 2 2 2 0 0 0 1 1 1 1 0 0 0 1 0 1 1 0 0 1 1 1 1 1 0 0 0 0 1 0 0 0
0 0 0 1 1 1 0 1 1 1 1 1 1 1 1 0 0 0 0 0 0 1 1 0 0 0 0 1 0 0 0 1 1 1 1 0 0 0 0 0 0 0 0
0 0 0 0 0 0 0 1 1 1 1 1 1 1 1 2 2 1 0 0 0 0 1 0 0 0 1 0 0 0 0 0 0 1 1 1 0 0 1 1 1 1 1
0 0 0 0 0 0 0 0 0 0 1 0 1 1 1 1 1 1 0 0 0 0 0 0 -0 0 0 0 0 0 0 0 0 1 0 0 0 0 0 1 1 1 1
0 0 0 0 0 0 0 0 0 0 0 0 1 1 1 1 1 1 1 0 1 0 1 0 -0 0 0 0 0 0 0 0 0 0 0 0 0 0 0 0 0 0 0
0 0 0 0 0 0 0 0 0 0 0 0 0 0 0 0 1 1 1 1 1 1 1 0 0 0 0 0 0 0 0 0 0 0 0 0 0 0 0 0 0 0 0
0 0 0 0 0 0 0 0 0 0 0 0 0 0 0 0 0 0 1 1 1 1 0 0 0 0 1 0 0 0 0 0 0 0 0 0 0 0 0 0 0 0 0
0 0 0 0 0 0 0 0 0 0 0 0 0 0 0 0 0 0 0 1 1 1 0 0 0 0 0 0 0 0 0 0 0 0 0 0 0 0 0 0 0 0 0
0 0 0 0 0 0 0 0 0 0 0 0 0 0 0 0 0 0 0 0 0 0 0 1 1 1 1 1 0 0 0 0 0 0 0 0 0 0 0 0 0 0 0
0 0 0 0 0 0 0 0 0 0 0 0 0 0 0 0 0 0 0 0 0 0 0 0 0 1 1 2 2 1 1 1 1 0 0 0 0 0 0 0 0 0 0
0 0 0 0 0 0 0 0 0 0 0 0 0 0 0 0 0 0 0 0 0 0 0 0 0 0 0 0 1 2 2 1 1 0 0 0 0 0 0 0 0 0 0
0 0 0 0 0 0 0 0 0 0 0 0 0 0 0 0 0 0 0 0 0 0 0 0 0 0 0 0 0 1 1 2 1 0 0 0 0 0 0 0 0 0 0
0 0 0 0 0 0 0 0 0 0 0 0 0 0 0 0 0 0 0 0 0 0 0 0 0 0 0 0 0 0 0 0 0 0 0 0 0 0 0 0 0 0 0
0 0 0 0 0 0 0 0 0 0 0 0 0 0 0 0 0 0 0 0 0 0 0 0 0 0 0 0 0 0 0 0 0 0 0 0 0 0 0 0 0 0 0
0 0 0 0 0 0 0 0 0 0 0 0 0 0 0 0 0 0 0 0 0 0 0 0 0 0 0 0 0 0 0 0 0 0 0 0 0 0 0 0 0 0 0
0 0 0 0 0 0 0 0 0 0 0 0 0 0 0 0 0 0 0 0 0 0 0 0 0 0 0 0 0 0 0 0 0 0 0 0 0 0 0 0 0 0 0
0 0 0 0 0 0 0 0 0 0 0 0 0 0 0 0 0 0 0 0 0 0 0 0 0 0 0 0 0 0 0 0 0 0 0 0 0 0 0 0 0 0 0
0 0 0 0 0 0 0 0 0 0 0 0 0 0 0 0 0 0 0 0 0 0 0 0 0 0 0 0 0 0 0 0 0 0 0 0 0 0 0 0 0 0 0
0 0 0 0 0 0 0 0 0 0 0 0 0 0 0 0 0 0 0 0 0 0 0 0 0 0 0 0 0 0 0 0 0 0 0 0 0 0 0 0 0 0 0
Wind_Speed_500mb
20 23 22 23 24 26 24 24 24 28 30 29 28 27 26 30 31 34 31 26 25 21 24 22 21 24 26 28 26 21 20 18 17 17 19 20 20 18 17 13 15 19 19
18 22 23 23 24 26 27 28 27 32 33 36 35 34 34 36 36 37 30 27 27 26 30 33 31 30 28 25 23 24 21 20 19 20 19 19 22 22 21 20 17 21 23
14 16 18 19 21 24 25 27 28 33 36 37 41 43 45 39 30 40 37 40 35 32 31 32 35 35 34 32 31 27 23 21 18 19 18 19 21 22 23 22 20 20 24
20 20 19 21 24 29 31 33 35 40 43 43 43 43 44 46 43 42 42 35 33 31 35 31 28 27 27 27 28 27 26 25 25 23 24 23 21 26 25 25 27 24 27
24 28 29 27 29 34 39 40 46 49 49 48 44 45 44 45 42 41 43 32 28 28 44 39 34 32 29 28 27 31 29 28 26 28 30 29 30 30 28 31 31 28 30
27 30 27 29 29 31 37 40 43 47 48 51 50 51 52 49 48 44 41 46 55 33 53 44 38 40 32 31 27 23 26 23 27 26 28 30 34 33 30 30 32 37 32
27 32 31 34 33 33 36 43 44 46 52 51 47 49 49 50 43 46 47 52 45 66 49 34 37 38 33 26 26 25 25 23 23 25 29 30 29 32 31 31 32 32 37
27 29 31 33 37 42 45 46 48 44 49 54 50 50 39 34 38 35 38 22 19 33 41 34 35 34 29 30 30 27 27 25 22 23 23 26 31 37 33 33 38 39 35
25 29 34 36 43 47 46 48 52 53 53 55 52 46 27 30 32 26 29 30 22 23 24 39 42 41 41 38 36 35 33 33 30 29 32 31 32 36 38 36 36 37 36
26 26 26 29 34 39 42 46 50 52 51 51 48 51 49 49 40 33 50 48 50 67 57 46 51 50 50 40 38 37 36 35 36 36 34 33 30 31 34 38 38 41 41
18 20 22 25 26 27 29 31 32 32 37 41 45 48 43 44 49 43 37 44 45 59 74 65 67 56 55 45 45 45 43 37 36 37 37 33 33 33 35 35 31 34 39
23 28 31 32 33 33 34 34 33 30 28 30 30 31 31 34 28 33 41 43 49 48 73 76 69 52 51 56 51 49 41 36 36 34 33 33 35 33 31 32 32 34 35
28 29 33 39 43 45 45 42 40 39 37 35 34 32 32 32 34 37 45 48 48 48 62 72 76 82 80 67 54 44 38 36 39 41 39 38 37 39 35 35 33 35 37
28 35 41 47 52 56 51 46 45 43 41 39 38 38 37 32 32 30 31 28 38 38 39 49 47 54 63 53 50 44 41 36 39 46 47 39 36 39 40 34 31 32 36
34 38 44 51 55 52 47 45 44 45 45 46 46 46 45 39 34 31 29 31 36 46 52 39 34 39 51 56 58 49 54 52 47 49 53 45 40 44 36 35 37 36 38
39 44 50 56 57 55 53 52 52 51 50 49 47 49 47 42 41 35 31 31 34 41 56 50 44 39 43 58 63 55 57 53 48 50 54 54 52 51 48 43 44 45 41
42 47 55 58 54 55 57 59 62 64 64 64 62 60 59 56 48 41 41 38 39 42 55 61 48 51 53 64 63 59 65 62 51 54 55 55 55 56 56 50 47 44 38
46 51 57 56 59 62 64 67 73 76 78 78 74 72 71 64 62 58 49 46 44 44 51 62 49 48 51 46 54 66 67 54 47 51 56 59 63 69 68 59 49 45 42
50 52 55 59 62 66 72 77 82 87 87 80 73 69 70 66 63 56 54 52 51 51 52 59 60 52 50 45 47 49 62 65 64 56 64 58 64 71 69 62 52 53 49
53 57 62 67 72 79 84 87 82 77 73 68 65 65 64 62 61 56 51 50 51 54 58 62 64 61 56 51 50 50 52 48 53 55 56 57 57 60 64 61 61 61 53
60 67 74 80 85 89 82 75 72 65 58 52 48 48 48 48 48 49 49 45 45 48 48 53 59 60 60 57 55 51 53 50 52 48 52 55 51 53 56 64 64 66 63
73 82 87 89 86 75 66 61 56 52 49 48 45 44 46 47 45 45 47 51 51 56 55 51 53 55 54 52 51 51 51 53 59 50 54 58 53 55 52 49 53 57 59
86 84 79 72 64 56 47 45 46 44 44 45 46 47 47 44 47 46 50 50 52 52 55 59 62 61 61 53 49 54 54 54 58 52 49 58 47 53 50 52 55 54 51
70 66 58 49 43 37 37 40 41 42 43 45 46 47 49 51 47 48 48 47 49 51 56 54 49 51 51 54 56 56 59 64 63 61 48 59 48 52 52 52 56 57 54
52 44 36 33 35 34 33 36 41 42 41 45 44 46 46 46 46 44 47 51 54 56 53 50 53 56 57 56 53 48 46 48 54 57 48 42 47 48 46 52 52 57 61
38 34 33 39 32 33 36 37 38 42 43 44 50 54 55 53 51 51 52 54 56 54 50 50 50 53 52 49 47 48 52 48 45 46 62 54 53 33 27 37 41 46 54
Wind_Direction_500mb
269 275 279 280 277 276 275 279 285 282 278 284 289 290 289 277 270 268 270 263 260 260 267 268 267 261 260 266 264 269 265 262 265 269 265 269 268 267 260 257 271 268 262
278 284 287 289 291 289 284 283 284 281 281 283 285 287 288 284 271 266 267 272 264 274 274 274 268 262 262 265 258 264 265 266 276 281 277 275 272 264 261 258 253 262 259
283 289 297 303 309 308 306 300 292 290 290 291 291 289 286 286 284 266 271 269 273 280 273 270 278 261 252 258 264 270 264 266 275 274 280 280 278 273 265 266 262 262 268
271 276 285 292 292 297 298 298 299 294 293 294 300 301 293 283 274 273 272 264 276 277 281 274 277 266 254 260 260 262 267 269 270 273 277 280 288 281 275 263 262 258 255
291 289 287 287 286 287 290 294 295 295 295 288 295 300 297 284 277 276 272 257 271 278 286 270 268 259 256 260 261 259 259 265 270 272 270 275 280 283 282 274 266 260 259
272 278 285 289 290 291 292 295 294 294 293 290 289 297 305 299 276 276 269 264 264 262 266 267 265 264 262 260 266 263 264 267 268 270 266 269 273 274 282 278 269 267 257
266 274 279 281 285 286 287 285 287 292 292 293 290 291 306 303 285 275 273 271 267 271 266 258 262 265 255 253 265 267 273 274 273 271 271 273 266 265 276 282 281 275 261
276 280 284 287 286 287 284 286 289 291 288 288 285 294 300 297 299 273 261 255 264 263 267 274 266 252 249 261 264 262 267 274 277 282 283 279 274 275 279 273 274 271 265
301 295 290 282 284 287 286 284 283 282 282 282 283 284 284 279 283 239 212 234 240 279 257 255 255 255 263 263 258 256 265 274 280 282 289 289 279 276 282 277 275 271 267
328 315 305 298 292 292 290 287 284 280 279 281 282 281 278 270 269 275 268 275 263 250 233 267 264 268 262 253 248 252 261 266 271 277 280 286 287 285 282 279 274 269 267
20 14 3 355 345 335 318 307 299 294 288 284 278 277 281 274 273 252 274 264 260 247 227 247 274 272 262 250 253 264 265 257 259 266 272 275 284 292 284 276 274 265 259
12 7 1 353 345 338 334 333 329 321 313 300 293 289 281 267 261 259 253 255 260 255 246 251 260 257 264 256 261 263 259 259 263 265 265 272 282 286 282 283 278 270 267
16 8 0 354 347 336 325 319 316 314 311 306 302 298 294 288 279 268 261 260 260 265 262 258 256 251 255 257 252 250 250 252 259 259 260 268 269 277 279 281 286 277 274
4 357 350 346 341 339 329 314 308 305 301 298 294 292 290 289 288 283 274 269 270 265 262 256 256 245 239 240 245 255 254 249 248 248 257 260 267 270 274 282 287 285 285
348 345 342 339 336 332 326 317 310 306 303 301 298 293 290 287 283 279 272 267 267 268 265 263 255 258 250 249 247 257 264 267 262 246 248 255 261 260 259 268 277 286 293
333 332 333 332 330 327 328 328 327 321 314 306 302 298 294 291 287 283 277 270 264 264 270 264 261 258 253 260 265 264 261 262 253 247 248 254 259 259 260 269 275 278 284
316 320 324 325 323 322 320 320 319 318 314 309 304 299 295 293 290 284 280 274 267 264 266 270 265 262 261 260 258 257 262 262 262 256 248 249 253 252 257 268 276 260 267
310 315 319 319 317 316 315 313 312 310 308 304 300 297 294 291 285 284 281 276 269 264 266 272 270 262 264 263 257 256 257 257 254 253 252 250 250 254 258 265 267 248 258
301 305 308 307 306 306 306 306 304 304 303 299 294 290 289 287 282 279 273 271 270 271 268 269 270 266 263 260 262 260 254 256 258 258 261 254 247 249 257 264 248 245 253
295 299 301 302 304 304 303 303 302 301 300 296 292 290 291 290 288 284 280 277 275 272 269 268 270 269 266 264 260 260 261 257 257 255 256 253 247 252 253 254 247 246 251
296 299 301 302 303 303 304 304 303 302 299 298 300 300 298 295 291 287 282 279 275 274 271 268 267 266 265 264 262 264 262 262 256 253 253 251 255 256 257 256 249 246 250
298 301 303 304 306 306 306 304 302 301 300 300 302 299 296 294 293 286 281 279 279 281 275 271 268 264 263 263 264 262 261 260 261 257 254 256 249 253 252 249 247 248 250
303 304 305 305 305 306 306 303 301 301 306 308 306 306 304 297 291 287 283 281 280 277 276 274 269 267 268 266 262 260 259 255 257 256 256 259 252 251 249 245 242 246 242
309 310 309 309 309 314 311 309 311 313 312 309 308 307 304 303 299 298 296 289 285 283 280 275 271 271 269 270 266 265 266 267 262 254 246 254 251 250 250 249 249 238 242
313 314 321 322 319 321 323 324 319 315 309 312 314 311 313 312 309 303 296 290 289 287 284 279 270 266 269 267 264 266 258 258 263 263 256 252 252 250 249 252 247 245 236
320 322 326 323 322 326 327 320 314 317 321 319 319 318 317 314 311 306 298 292 287 285 288 288 283 275 268 263 258 253 257 259 263 271 265 256 258 257 259 253 243 236 239
Wind_Speed_850mb
20 23 22 23 24 26 24 24 24 28 30 29 28 27 26 30 31 34 31 26 25 21 24 22 21 24 26 28 26 21 20 18 17 17 19 20 20 18 17 13 15 19 19
18 22 23 23 24 26 27 28 27 32 33 36 35 34 34 36 36 37 30 27 27 26 30 33 31 30 28 25 23 24 21 20 19 20 19 19 22 22 21 20 17 21 23
14 16 18 19 21 24 25 27 28 33 36 37 41 43 45 39 30 40 37 40 35 32 31 32 35 35 34 32 31 27 23 21 18 19 18 19 21 22 23 22 20 20 24
20 20 19 21 24 29 31 33 35 40 43 43 43 43 44 46 43 42 42 35 33 31 35 31 28 27 27 27 28 27 26 25 25 23 24 23 21 26 25 25 27 24 27
24 28 29 27 29 34 39 40 46 49 49 48 44 45 44 45 42 41 43 32 28 28 44 39 34 32 29 28 27 31 29 28 26 28 30 29 30 30 28 31 31 28 30
27 30 27 29 29 31 37 40 43 47 48 51 50 51 52 49 48 44 41 46 55 33 53 44 38 40 32 31 27 23 26 23 27 26 28 30 34 33 30 30 32 37 32
27 32 31 34 33 33 36 43 44 46 52 51 47 49 49 50 43 46 47 52 45 66 49 34 37 38 33 26 26 25 25 23 23 25 29 30 29 32 31 31 32 32 37
27 29 31 33 37 42 45 46 48 44 49 54 50 50 39 34 38 35 38 22 19 33 41 34 35 34 29 30 30 27 27 25 22 23 23 26 31 37 33 33 38 39 35
25 29 34 36 43 47 46 48 52 53 53 55 52 46 27 30 32 26 29 30 22 23 24 39 42 41 41 38 36 35 33 33 30 29 32 31 32 36 38 36 36 37 36
26 26 26 29 34 39 42 46 50 52 51 51 48 51 49 49 40 33 50 48 50 67 57 46 51 50 50 40 38 37 36 35 36 36 34 33 30 31 34 38 38 41 41
18 20 22 25 26 27 29 31 32 32 37 41 45 48 43 44 49 43 37 44 45 59 74 65 67 56 55 45 45 45 43 37 36 37 37 33 33 33 35 35 31 34 39
23 28 31 32 33 33 34 34 33 30 28 30 30 31 31 34 28 33 41 43 49 48 73 76 69 52 51 56 51 49 41 36 36 34 33 33 35 33 31 32 32 34 35
28 29 33 39 43 45 45 42 40 39 37 35 34 32 32 32 34 37 45 48 48 48 62 72 76 82 80 67 54 44 38 36 39 41 39 38 37 39 35 35 33 35 37
28 35 41 47 52 56 51 46 45 43 41 39 38 38 37 32 32 30 31 28 38 38 39 49 47 54 63 53 50 44 41 36 39 46 47 39 36 39 40 34 31 32 36
34 38 44 51 55 52 47 45 44 45 45 46 46 46 45 39 34 31 29 31 36 46 52 39 34 39 51 56 58 49 54 52 47 49 53 45 40 44 36 35 37 36 38
39 44 50 56 57 55 53 52 52 51 50 49 47 49 47 42 41 35 31 31 34 41 56 50 44 39 43 58 63 55 57 53 48 50 54 54 52 51 48 43 44 45 41
42 47 55 58 54 55 57 59 62 64 64 64 62 60 59 56 48 41 41 38 39 42 55 61 48 51 53 64 63 59 65 62 51 54 55 55 55 56 56 50 47 44 38
46 51 57 56 59 62 64 67 73 76 78 78 74 72 71 64 62 58 49 46 44 44 51 62 49 48 51 46 54 66 67 54 47 51 56 59 63 69 68 59 49 45 42
50 52 55 59 62 66 72 77 82 87 87 80 73 69 70 66 63 56 54 52 51 51 52 59 60 52 50 45 47 49 62 65 64 56 64 58 64 71 69 62 52 53 49
53 57 62 67 72 79 84 87 82 77 73 68 65 65 64 62 61 56 51 50 51 54 58 62 64 61 56 51 50 50 52 48 53 55 56 57 57 60 64 61 61 61 53
60 67 74 80 85 89 82 75 72 65 58 52 48 48 48 48 48 49 49 45 45 48 48 53 59 60 60 57 55 51 53 50 52 48 52 55 51 53 56 64 64 66 63
73 82 87 89 86 75 66 61 56 52 49 48 45 44 46 47 45 45 47 51 51 56 55 51 53 55 54 52 51 51 51 53 59 50 54 58 53 55 52 49 53 57 59
86 84 79 72 64 56 47 45 46 44 44 45 46 47 47 44 47 46 50 50 52 52 55 59 62 61 61 53 49 54 54 54 58 52 49 58 47 53 50 52 55 54 51
70 66 58 49 43 37 37 40 41 42 43 45 46 47 49 51 47 48 48 47 49 51 56 54 49 51 51 54 56 56 59 64 63 61 48 59 48 52 52 52 56 57 54
52 44 36 33 35 34 33 36 41 42 41 45 44 46 46 46 46 44 47 51 54 56 53 50 53 56 57 56 53 48 46 48 54 57 48 42 47 48 46 52 52 57 61
38 34 33 39 32 33 36 37 38 42 43 44 50 54 55 53 51 51 52 54 56 54 50 50 50 53 52 49 47 48 52 48 45 46 62 54 53 33 27 37 41 46 54
Wind_Direction_850mb
269 275 279 280 277 276 275 279 285 282 278 284 289 290 289 277 270 268 270 263 260 260 267 268 267 261 260 266 264 269 265 262 265 269 265 269 268 267 260 257 271 268 262
278 284 287 289 291 289 284 283 284 281 281 283 285 287 288 284 271 266 267 272 264 274 274 274 268 262 262 265 258 264 265 266 276 281 277 275 272 264 261 258 253 262 259
283 289 297 303 309 308 306 300 292 290 290 291 291 289 286 286 284 266 271 269 273 280 273 270 278 261 252 258 264 270 264 266 275 274 280 280 278 273 265 266 262 262 268
271 276 285 292 292 297 298 298 299 294 293 294 300 301 293 283 274 273 272 264 276 277 281 274 277 266 254 260 260 262 267 269 270 273 277 280 288 281 275 263 262 258 255
291 289 287 287 286 287 290 294 295 295 295 288 295 300 297 284 277 276 272 257 271 278 286 270 268 259 256 260 261 259 259 265 270 272 270 275 280 283 282 274 266 260 259
272 278 285 289 290 291 292 295 294 294 293 290 289 297 305 299 276 276 269 264 264 262 266 267 265 264 262 260 266 263 264 267 268 270 266 269 273 274 282 278 269 267 257
266 274 279 281 285 286 287 285 287 292 292 293 290 291 306 303 285 275 273 271 267 271 266 258 262 265 255 253 265 267 273 274 273 271 271 273 266 265 276 282 281 275 261
276 280 284 287 286 287 284 286 289 291 288 288 285 294 300 297 299 273 261 255 264 263 267 274 266 252 249 261 264 262 267 274 277 282 283 279 274 275 279 273 274 271 265
301 295 290 282 284 287 286 284 283 282 282 282 283 284 284 279 283 239 212 234 240 279 257 255 255 255 263 263 258 256 265 274 280 282 289 289 279 276 282 277 275 271 267
328 315 305 298 292 292 290 287 284 280 279 281 282 281 278 270 269 275 268 275 263 250 233 267 264 268 262 253 248 252 261 266 271 277 280 286 287 285 282 279 274 269 267
20 14 3 355 345 335 318 307 299 294 288 284 278 277 281 274 273 252 274 264 260 247 227 247 274 272 262 250 253 264 265 257 259 266 272 275 284 292 284 276 274 265 259
12 7 1 353 345 338 334 333 329 321 313 300 293 289 281 267 261 259 253 255 260 255 246 251 260 257 264 256 261 263 259 259 263 265 265 272 282 286 282 283 278 270 267
16 8 0 354 347 336 325 319 316 314 311 306 302 298 294 288 279 268 261 260 260 265 262 258 256 251 255 257 252 250 250 252 259 259 260 268 269 277 279 281 286 277 274
4 357 350 346 341 339 329 314 308 305 301 298 294 292 290 289 288 283 274 269 270 265 262 256 256 245 239 240 245 255 254 249 248 248 257 260 267 270 274 282 287 285 285
348 345 342 339 336 332 326 317 310 306 303 301 298 293 290 287 283 279 272 267 267 268 265 263 255 258 250 249 247 257 264 267 262 246 248 255 261 260 259 268 277 286 293
333 332 333 332 330 327 328 328 327 321 314 306 302 298 294 291 287 283 277 270 264 264 270 264 261 258 253 260 265 264 261 262 253 247 248 254 259 259 260 269 275 278 284
316 320 324 325 323 322 320 320 319 318 314 309 304 299 295 293 290 284 280 274 267 264 266 270 265 262 261 260 258 257 262 262 262 256 248 249 253 252 257 268 276 260 267
310 315 319 319 317 316 315 313 312 310 308 304 300 297 294 291 285 284 281 276 269 264 266 272 270 262 264 263 257 256 257 257 254 253 252 250 250 254 258 265 267 248 258
301 305 308 307 306 306 306 306 304 304 303 299 294 290 289 287 282 279 273 271 270 271 268 269 270 266 263 260 262 260 254 256 258 258 261 254 247 249 257 264 248 245 253
295 299 301 302 304 304 303 303 302 301 300 296 292 290 291 290 288 284 280 277 275 272 269 268 270 269 266 264 260 260 261 257 257 255 256 253 247 252 253 254 247 246 251
296 299 301 302 303 303 304 304 303 302 299 298 300 300 298 295 291 287 282 279 275 274 271 268 267 266 265 264 262 264 262 262 256 253 253 251 255 256 257 256 249 246 250
298 301 303 304 306 306 306 304 302 301 300 300 302 299 296 294 293 286 281 279 279 281 275 271 268 264 263 263 264 262 261 260 261 257 254 256 249 253 252 249 247 248 250
303 304 305 305 305 306 306 303 301 301 306 308 306 306 304 297 291 287 283 281 280 277 276 274 269 267 268 266 262 260 259 255 257 256 256 259 252 251 249 245 242 246 242
309 310 309 309 309 314 311 309 311 313 312 309 308 307 304 303 299 298 296 289 285 283 280 275 271 271 269 270 266 265 266 267 262 254 246 254 251 250 250 249 249 238 242
313 314 321 322 319 321 323 324 319 315 309 312 314 311 313 312 309 303 296 290 289 287 284 279 270 266 269 267 264 266 258 258 263 263 256 252 252 250 249 252 247 245 236
320 322 326 323 322 326 327 320 314 317 321 319 319 318 317 314 311 306 298 292 287 285 288 288 283 275 268 263 258 253 257 259 263 271 265 256 258 257 259 253 243 236 239